TimeEDT,TemperatureF,Dew PointF,Humidity,Sea Level PressureIn,VisibilityMPH,Wind Direction,Wind SpeedMPH,Gust SpeedMPH,PrecipitationIn,Events,Conditions,WindDirDegrees,DateUTC
1:35 AM,33.8,22.1,62,30.35,10.0,WNW,3.5,-,N/A,,Clear,290,2012-10-13 05:35:00
2:15 AM,33.6,21.2,60,30.35,10.0,Calm,Calm,-,N/A,,Clear,0,2012-10-13 06:15:00
2:55 AM,31.8,22.1,67,30.35,10.0,Calm,Calm,-,N/A,,Clear,0,2012-10-13 06:55:00
3:15 AM,32.0,21.9,66,30.35,10.0,Calm,Calm,-,N/A,,Clear,0,2012-10-13 07:15:00
3:35 AM,31.6,22.5,69,30.35,10.0,SW,3.5,-,N/A,,Clear,220,2012-10-13 07:35:00
3:55 AM,31.8,22.8,69,30.34,10.0,SSW,3.5,-,N/A,,Clear,200,2012-10-13 07:55:00
4:35 AM,31.6,22.3,68,30.35,10.0,Calm,Calm,-,N/A,,Clear,0,2012-10-13 08:35:00
4:55 AM,31.5,21.9,68,30.36,10.0,Calm,Calm,-,N/A,,Clear,0,2012-10-13 08:55:00
5:15 AM,30.0,21.0,69,30.36,10.0,Calm,Calm,-,N/A,,Clear,0,2012-10-13 09:15:00
5:35 AM,28.0,21.0,75,30.37,10.0,Calm,Calm,-,N/A,,Clear,0,2012-10-13 09:35:00
6:15 AM,30.4,22.6,73,30.37,10.0,Calm,Calm,-,N/A,,Clear,0,2012-10-13 10:15:00
6:35 AM,30.9,22.1,70,30.37,10.0,Calm,Calm,-,N/A,,Clear,0,2012-10-13 10:35:00
6:55 AM,27.3,20.7,76,30.37,10.0,SW,3.5,-,N/A,,Clear,230,2012-10-13 10:55:00
7:15 AM,30.4,22.3,72,30.37,10.0,SW,3.5,-,N/A,,Clear,230,2012-10-13 11:15:00
7:35 AM,30.4,22.1,71,30.38,10.0,Calm,Calm,-,N/A,,Clear,0,2012-10-13 11:35:00
7:55 AM,29.8,23.0,76,30.38,10.0,SSW,5.8,-,N/A,,Clear,210,2012-10-13 11:55:00
8:15 AM,32.0,23.9,72,30.39,10.0,SW,3.5,-,N/A,,Clear,220,2012-10-13 12:15:00
8:35 AM,33.8,24.8,70,30.39,10.0,Calm,Calm,-,N/A,,Clear,0,2012-10-13 12:35:00
8:55 AM,35.8,26.4,69,30.39,10.0,Calm,Calm,-,N/A,,Clear,0,2012-10-13 12:55:00
9:15 AM,38.3,23.2,55,30.40,10.0,SW,3.5,-,N/A,,Clear,230,2012-10-13 13:15:00
9:35 AM,39.4,22.3,50,30.40,10.0,SSW,4.6,-,N/A,,Clear,200,2012-10-13 13:35:00
9:55 AM,40.1,20.8,46,30.40,10.0,WSW,9.2,-,N/A,,Clear,250,2012-10-13 13:55:00
10:15 AM,41.2,20.7,44,30.40,10.0,West,6.9,-,N/A,,Scattered Clouds,260,2012-10-13 14:15:00
10:35 AM,42.4,20.8,42,30.39,10.0,West,5.8,-,N/A,,Mostly Cloudy,280,2012-10-13 14:35:00
10:55 AM,42.8,21.0,42,30.39,10.0,WSW,5.8,18.4,N/A,,Mostly Cloudy,250,2012-10-13 14:55:00
11:15 AM,42.1,19.9,41,30.38,10.0,West,8.1,-,N/A,,Mostly Cloudy,260,2012-10-13 15:15:00
11:35 AM,43.7,22.3,43,30.38,10.0,West,6.9,-,N/A,,Scattered Clouds,260,2012-10-13 15:35:00
11:55 AM,45.0,22.5,41,30.38,10.0,SW,8.1,-,N/A,,Mostly Cloudy,220,2012-10-13 15:55:00
12:15 PM,45.5,22.6,41,30.38,10.0,SW,9.2,18.4,N/A,,Overcast,230,2012-10-13 16:15:00
12:35 PM,45.9,22.3,39,30.37,10.0,WNW,8.1,-,N/A,,Overcast,290,2012-10-13 16:35:00
12:55 PM,46.2,21.9,38,30.36,10.0,WSW,12.7,19.6,N/A,,Overcast,240,2012-10-13 16:55:00
1:15 PM,45.0,21.0,39,30.35,10.0,West,9.2,17.3,N/A,,Overcast,260,2012-10-13 17:15:00
1:35 PM,46.4,20.5,36,30.34,10.0,WNW,8.1,16.1,N/A,,Mostly Cloudy,300,2012-10-13 17:35:00
1:55 PM,46.2,19.8,35,30.34,10.0,West,8.1,17.3,N/A,,Mostly Cloudy,270,2012-10-13 17:55:00
2:15 PM,46.2,20.1,35,30.33,10.0,West,8.1,-,N/A,,Mostly Cloudy,260,2012-10-13 18:15:00
2:55 PM,46.4,18.9,33,30.31,10.0,West,9.2,-,N/A,,Scattered Clouds,280,2012-10-13 18:55:00
3:15 PM,48.2,17.6,30,30.31,10.0,WNW,9.2,-,N/A,,Scattered Clouds,300,2012-10-13 19:15:00
3:35 PM,48.2,17.8,30,30.31,10.0,WNW,10.4,-,N/A,,Mostly Cloudy,300,2012-10-13 19:35:00
4:15 PM,49.1,18.9,30,30.30,10.0,WSW,11.5,-,N/A,,Mostly Cloudy,240,2012-10-13 20:15:00
4:35 PM,47.7,18.9,32,30.30,10.0,West,9.2,16.1,N/A,,Mostly Cloudy,260,2012-10-13 20:35:00
4:55 PM,46.4,17.8,32,30.30,10.0,West,5.8,-,N/A,,Scattered Clouds,260,2012-10-13 20:55:00
5:15 PM,46.4,19.8,35,30.31,10.0,West,4.6,-,N/A,,Clear,260,2012-10-13 21:15:00
5:55 PM,46.0,19.9,35,30.30,10.0,Calm,Calm,-,N/A,,Mostly Cloudy,0,2012-10-13 21:55:00
6:15 PM,43.3,28.6,56,30.30,10.0,Calm,Calm,-,N/A,,Overcast,0,2012-10-13 22:15:00
6:35 PM,43.0,24.3,48,30.29,10.0,Calm,Calm,-,N/A,,Overcast,0,2012-10-13 22:35:00
6:55 PM,40.6,27.0,58,30.29,10.0,SSE,4.6,-,N/A,,Overcast,150,2012-10-13 22:55:00
7:15 PM,41.5,24.3,50,30.28,10.0,SE,3.5,-,N/A,,Overcast,140,2012-10-13 23:15:00
7:35 PM,40.1,25.2,55,30.28,10.0,SSE,4.6,-,N/A,,Scattered Clouds,150,2012-10-13 23:35:00
8:55 PM,42.8,25.5,51,30.24,10.0,Calm,Calm,-,N/A,,Overcast,0,2012-10-14 00:55:00
9:15 PM,42.8,24.6,49,30.24,10.0,Calm,Calm,-,N/A,,Overcast,0,2012-10-14 01:15:00
9:35 PM,42.3,26.1,53,30.23,10.0,SSE,3.5,-,N/A,,Overcast,160,2012-10-14 01:35:00
10:15 PM,42.6,26.2,52,30.22,10.0,SE,4.6,-,N/A,,Overcast,140,2012-10-14 02:15:00
10:35 PM,42.4,26.1,52,30.22,10.0,SSE,3.5,-,N/A,,Overcast,160,2012-10-14 02:35:00
10:55 PM,43.7,23.9,46,30.20,10.0,SSE,5.8,-,N/A,,Overcast,160,2012-10-14 02:55:00
11:15 PM,44.1,22.5,42,30.20,10.0,South,6.9,-,N/A,,Overcast,170,2012-10-14 03:15:00